Overview Statistics Trail Chart Weather Telemetry Raw packets
 

This is the latest recevied weather packets stored in our database for station/object K5SVV. If no packets are shown the sender has not sent any weather packets the latest 10 day(s).

<< 1 2 3 4 5 6 7 >>
Time Temp. Humidity Pressure Rain* Wind** Luminosity Snow
1788644755 38.89° C 39% 1010.2 hPa 0 mm - 525 W/m² -
1788644449 38.33° C 40% 1010.3 hPa 0 mm - 549 W/m² -
1788644144 37.78° C 41% 1010.6 hPa 0 mm - 561 W/m² -
1788643839 37.22° C 42% 1010.6 hPa 0 mm - 533 W/m² -
1788643534 37.78° C 41% 1010.6 hPa 0 mm - 542 W/m² -
1788643234 37.22° C 42% 1010.8 hPa 0 mm - 529 W/m² -
1788642953 37.22° C 42% 1010.7 hPa 0 mm - 556 W/m² -
1788642625 37.22° C 42% 1010.6 hPa 0 mm - 565 W/m² -
1788642320 37.78° C 42% 1010.8 hPa 0 mm - 602 W/m² -
1788642020 37.22° C 43% 1010.7 hPa 0 mm - 611 W/m² -
1788641715 38.33° C 41% 1010.9 hPa 0 mm - 607 W/m² -
1788641414 37.78° C 41% 1010.9 hPa 0 mm - 629 W/m² -
1788641109 37.78° C 41% 1011.3 hPa 0 mm - 584 W/m² -
1788640809 37.78° C 42% 1011.1 hPa 0 mm - 607 W/m² -
1788640504 38.33° C 41% 1011.1 hPa 0 mm - 657 W/m² -
1788640199 37.78° C 40% 1011.4 hPa 0 mm - 701 W/m² -
1788639894 37.78° C 42% 1011.3 hPa 0 mm - 734 W/m² -
1788639590 37.78° C 43% 1011.3 hPa 0 mm - 737 W/m² -
1788639285 37.22° C 43% 1011.4 hPa 0 mm - 730 W/m² -
1788638984 37.78° C 42% 1011.3 hPa 0 mm - 744 W/m² -
1788638681 37.22° C 42% 1011.4 hPa 0 mm - 734 W/m² -
1788638379 37.22° C 44% 1011.6 hPa 0 mm - 724 W/m² -
1788638074 37.78° C 42% 1011.9 hPa 0 mm - 732 W/m² -
1788637770 37.22° C 43% 1011.9 hPa 0 mm - 716 W/m² -
1788637468 37.22° C 43% 1011.8 hPa 0 mm - 690 W/m² -

* Rain latest hour (hover to see other rain measurements)
** Current wind speed in m/s (hover to see current wind gust speed)